This is the latest recevied weather packets stored in our database for station/object N2OCK. If no packets are shown the sender has not sent any weather packets the latest 10 day(s).
| Time | Temp. | Humidity | Pressure | Rain* | Wind** | Luminosity | Snow |
|---|---|---|---|---|---|---|---|
| 1778069976 | 15.56° C | 86% | 1011.4 hPa | 0 mm | - | 258 W/m² | - |
| 1778069672 | 15.56° C | 86% | 1011.3 hPa | 0 mm | - | 192 W/m² | - |
| 1778069369 | 15.56° C | 87% | 1011.2 hPa | 0 mm | - | 160 W/m² | - |
| 1778069067 | 15.56° C | 86% | 1011.1 hPa | 0 mm | - | 196 W/m² | - |
| 1778068764 | 16.11° C | 86% | 1011.2 hPa | 0 mm | - | 252 W/m² | - |
| 1778068462 | 15.56° C | 87% | 1011.1 hPa | 0 mm | - | 216 W/m² | - |
| 1778068160 | 15.56° C | 87% | 1011.1 hPa | 0 mm | - | 153 W/m² | - |
| 1778067857 | 15.56° C | 87% | 1011 hPa | 0 mm | - | 96 W/m² | - |
| 1778067556 | 15.56° C | 88% | 1011 hPa | 0 mm | - | 95 W/m² | - |
| 1778067253 | 15° C | 88% | 1011 hPa | 0 mm | - | 83 W/m² | - |
| 1778066949 | 15° C | 89% | 1011 hPa | 0 mm | - | 154 W/m² | - |
| 1778066647 | 15° C | 89% | 1011 hPa | 0 mm | - | 71 W/m² | - |
| 1778066344 | 15° C | 90% | 1011.2 hPa | 0 mm | - | 105 W/m² | - |
| 1778066042 | 14.44° C | 91% | 1011.1 hPa | 0 mm | - | 106 W/m² | - |
| 1778065739 | 14.44° C | 91% | 1011.1 hPa | 0 mm | - | 99 W/m² | - |
| 1778065437 | 13.89° C | 92% | 1011 hPa | 0 mm | - | 88 W/m² | - |
| 1778065133 | 13.89° C | 93% | 1011.3 hPa | 0 mm | - | 70 W/m² | - |
| 1778064830 | 13.89° C | 93% | 1011.4 hPa | 0 mm | - | 41 W/m² | - |
| 1778064527 | 13.89° C | 93% | 1011 hPa | 0 mm | - | 39 W/m² | - |
| 1778064225 | 13.89° C | 93% | 1011 hPa | 0 mm | - | 30 W/m² | - |
| 1778063922 | 13.89° C | 93% | 1011 hPa | 0 mm | - | 39 W/m² | - |
| 1778063619 | 13.89° C | 93% | 1011.1 hPa | 0 mm | - | 38 W/m² | - |
| 1778063317 | 13.89° C | 94% | 1011.1 hPa | 0 mm | - | 37 W/m² | - |
| 1778063015 | 13.33° C | 94% | 1011 hPa | 0 mm | - | 34 W/m² | - |
| 1778062712 | 13.33° C | 94% | 1011.1 hPa | 0 mm | - | 28 W/m² | - |
* Rain latest hour (hover to see other rain measurements)
** Current wind speed in m/s (hover to see current wind gust speed)